Weather History for 71244 - October, 2013

Change the Weather History Date:

Wednesday, October 23, 2013

  Actual Average Record
Temperature  
Mean Temperature 43 °F -  
Max Temperature 54 °F - - ()
Min Temperature 32 °F - - ()
Degree Days  
Heating Degree Days 22    
Moisture  
Dew Point 35 °F    
Average Humidity 76    
Maximum Humidity 93    
Minimum Humidity 46    
Precipitation  
Precipitation 0.00 in - - ()
Sea Level Pressure  
Sea Level Pressure 30.26 in    
Wind  
Wind Speed 6 mph ()    
Max Wind Speed 10 mph    
Max Gust Speed -    
T = Trace of Precipitation, MM = Missing Value Source: Averaged Metar Reports

Daily Weather History Graph

Daily Weather History Graph

Search for Another Location

Airport or City:

Trip Planner

Search our weather history database for the weather conditions in past years. The results will help you decide how hot, cold, wet, or windy it might be!

Date:

Astronomy

Oct. 23, 2013 Rise Set
Actual Time 8:01 AM MDT 6:22 PM MDT
Civil Twilight 7:29 AM MDT 6:54 PM MDT
Nautical Twilight 6:52 AM MDT 7:31 PM MDT
Astronomical Twilight 6:15 AM MDT 8:08 PM MDT
Moon 9:43 PM MDT (10/23) 12:35 PM MDT (10/23)
Length of Visible Light 11h 25m
Length of Day
10h 20m
Waning Gibbous, 79% of the Moon is Illuminated
Oct 23
Waning Gibbous
Oct 26
Last Quarter
Nov 3
New
Nov 9
First Quarter
Nov 17
Full

Hourly Weather History & Observations

Time (MDT) Temp. Windchill Dew Point Humidity Pressure Visibility Wind Dir Wind Speed Gust Speed Precip Events Conditions
12:00 AM 45.7 °F 41.0 °F 36.5 °F 70% 30.15 in - North 9.2 mph - N/A   Unknown
1:00 AM 45.5 °F 40.8 °F 36.9 °F 72% 30.17 in - North 9.2 mph - N/A   Unknown
2:00 AM 43.7 °F 38.6 °F 36.7 °F 76% 30.18 in - North 9.2 mph - N/A   Unknown
3:00 AM 43.2 °F - 37.0 °F 79% 30.19 in - WNW 2.3 mph - N/A   Unknown
4:00 AM 42.1 °F - 36.9 °F 82% 30.19 in - NNW 1.2 mph - N/A   Unknown
5:00 AM 36.3 °F 31.6 °F 33.4 °F 89% 30.22 in - North 5.8 mph - N/A   Unknown
6:00 AM 34 °F - 33 °F 93% 30.25 in - North 4.6 mph - -  
6:00 AM 34.2 °F 30.0 °F 31.3 °F 89% 30.25 in - North 4.6 mph - N/A   Unknown
7:00 AM 33.6 °F 28.4 °F 31.6 °F 92% 30.26 in - NW 5.8 mph - N/A   Unknown
8:00 AM 34.2 °F 27.5 °F 31.8 °F 91% 30.26 in - WNW 8.1 mph - N/A   Unknown
9:00 AM 36.0 °F 33.3 °F 34.2 °F 93% 30.30 in - NNW 3.5 mph - N/A   Unknown
10:00 AM 44.4 °F 42.0 °F 40.5 °F 86% 30.28 in - NE 4.6 mph - N/A   Unknown
11:00 AM 45.5 °F 41.8 °F 39.9 °F 81% 30.28 in - ESE 6.9 mph - N/A   Unknown
12:00 PM 46 °F - 40 °F 72% 30.30 in - ENE 8.1 mph - -  
12:00 PM 46.0 °F 41.9 °F 39.9 °F 79% 30.30 in - ENE 8.1 mph - N/A   Unknown
1:00 PM 49.6 °F - 39.6 °F 68% 30.28 in - ENE 6.9 mph - N/A   Unknown
2:00 PM 52.9 °F - 37.4 °F 56% 30.26 in - ESE 6.9 mph - N/A   Unknown
3:00 PM 53.6 °F - 33.4 °F 46% 30.26 in - ENE 8.1 mph - N/A   Unknown
4:00 PM 53.4 °F - 33.4 °F 47% 30.27 in - East 8.1 mph - N/A   Unknown
5:00 PM 50.4 °F - 36.0 °F 58% 30.28 in - ENE 10.4 mph - N/A   Unknown
6:00 PM 46 °F - 33 °F 48% 30.29 in - East 6.9 mph - -  
6:00 PM 45.7 °F 42.0 °F 31.3 °F 57% 30.29 in - East 6.9 mph - N/A   Unknown
7:00 PM 39.6 °F 34.0 °F 32.0 °F 74% 30.30 in - East 8.1 mph - N/A   Unknown
8:00 PM 37.8 °F 32.5 °F 31.5 °F 78% 30.31 in - East 6.9 mph - N/A   Unknown
9:00 PM 34.9 °F 32.0 °F 30.9 °F 85% 30.30 in - ESE 3.5 mph - N/A   Unknown
10:00 PM 34.3 °F - 30.9 °F 87% 30.30 in - South 2.3 mph - N/A   Unknown
11:00 PM 33.8 °F 29.6 °F 31.6 °F 92% 30.29 in - SW 4.6 mph - N/A   Unknown